Location: Bernay
(48.6766°N, 2.9386°E)
Time: 19:53:17
(UTC+00:00)

Cosmos 2366 rocket - Pass Details

Date: 12 January 2026
Orbit: 955 x 995 km, 82.9° (Epoch: 14 February)

Event Time Altitude Azimuth Distance (km) Brightness Sun altitude
Rises 17:43:07 0° 351° (N) 3,709 7.0 -13.9°
Reaches altitude 10° 17:45:39 10° 352° (N) 2,761 6.3 -14.3°
Maximum altitude 17:52:01 81° 80° (E) 1,011 4.0 -15.3°
Drops below altitude 10° 17:58:22 10° 169° (SSE) 2,755 6.4 -16.3°
Sets 18:00:53 0° 170° (S) 3,700 7.1 -16.7°
